This is the latest recevied weather packets stored in our database for station/object WA1NHP. If no packets are shown the sender has not sent any weather packets the latest 10 day(s).
| Time | Temp. | Humidity | Pressure | Rain* | Wind** | Luminosity | Snow |
|---|---|---|---|---|---|---|---|
| 1777938244 | 16.11° C | 45% | 1023.9 hPa | 0 mm | - | 0 W/m² | - |
| 1777937644 | 16.67° C | 45% | 1023.9 hPa | 0 mm | - | 7 W/m² | - |
| 1777937043 | 17.22° C | 45% | 1023.9 hPa | 0 mm | - | 11 W/m² | - |
| 1777936444 | 17.22° C | 43% | 1023.9 hPa | 0 mm | - | 12 W/m² | - |
| 1777935843 | 17.78° C | 43% | 1023.9 hPa | 0 mm | - | 16 W/m² | - |
| 1777935244 | 18.33° C | 42% | 1023.9 hPa | 0 mm | - | 18 W/m² | - |
| 1777934643 | 18.33° C | 42% | 1023.9 hPa | 0 mm | - | 26 W/m² | - |
| 1777934044 | 18.33° C | 39% | 1023.9 hPa | 0 mm | - | 33 W/m² | - |
| 1777933443 | 18.89° C | 41% | 1023.9 hPa | 0 mm | - | 32 W/m² | - |
| 1777932844 | 18.89° C | 40% | 1023.9 hPa | 0 mm | - | 39 W/m² | - |
| 1777932244 | 19.44° C | 39% | 1023.9 hPa | 0 mm | - | 46 W/m² | - |
| 1777931644 | 19.44° C | 38% | 1023.9 hPa | 0 mm | - | 49 W/m² | - |
| 1777931044 | 19.44° C | 41% | 1023.9 hPa | 0 mm | - | 81 W/m² | - |
| 1777930443 | 19.44° C | 39% | 1023.9 hPa | 0 mm | - | 86 W/m² | - |
| 1777929844 | 19.44° C | 39% | 1023.9 hPa | 0 mm | - | 193 W/m² | - |
| 1777929244 | 19.44° C | 38% | 1023.9 hPa | 0 mm | - | 260 W/m² | - |
| 1777928644 | 19.44° C | 39% | 1023.9 hPa | 0 mm | - | 230 W/m² | - |
| 1777928044 | 19.44° C | 38% | 1023.9 hPa | 0 mm | - | 171 W/m² | - |
| 1777927444 | 19.44° C | 38% | 1023.9 hPa | 0 mm | - | 97 W/m² | - |
| 1777926844 | 19.44° C | 38% | 1023.9 hPa | 0 mm | - | 482 W/m² | - |
| 1777926244 | 20.56° C | 38% | 1023.9 hPa | 0 mm | - | 555 W/m² | - |
| 1777925644 | 19.44° C | 40% | 1023.9 hPa | 0 mm | - | 605 W/m² | - |
| 1777925044 | 20° C | 37% | 1023.9 hPa | 0 mm | - | 671 W/m² | - |
| 1777924443 | 19.44° C | 37% | 1023.9 hPa | 0 mm | - | 587 W/m² | - |
| 1777923844 | 20.56° C | 38% | 1023.9 hPa | 0 mm | - | 738 W/m² | - |
* Rain latest hour (hover to see other rain measurements)
** Current wind speed in m/s (hover to see current wind gust speed)